Location: ????
(30.2663°N, 31.2484°E)
Time: 20:35:57
(UTC+00:00)

Meteor 1-19 Rocket - Visible Passes

Search period start: 30 March 2023 00:00
Search period end: 09 April 2023 00:00
Orbit: 813 x 922 km, 81.2° (Epoch: 30 March)

Date Brightness Start Highest point End Pass type
(mag) Time Alt. Az. Time Alt. Az. Time Alt. Az.
30 Mar 6.7 01:33:25 10° SE 01:37:29 20° E 01:41:38 10° NE visible
30 Mar 4.7 03:14:54 10° SSW 03:20:20 41° WNW 03:25:55 10° N visible
31 Mar 6.7 01:26:16 10° SE 01:30:25 20° E 01:34:36 10° NE visible
31 Mar 4.8 03:07:51 10° SSW 03:13:16 41° WNW 03:18:51 10° N visible
01 Apr 6.6 01:19:08 10° SE 01:23:20 21° E 01:27:36 10° NE visible
01 Apr 4.8 03:00:47 10° SSW 03:06:13 40° WNW 03:11:46 10° N visible
02 Apr 6.6 01:12:01 10° SE 01:16:16 21° E 01:20:35 10° NE visible
02 Apr 4.8 02:53:44 10° SSW 02:59:09 39° WNW 03:04:43 10° N visible
03 Apr 6.5 01:04:52 10° SE 01:09:11 22° E 01:13:34 10° NE visible
03 Apr 4.8 02:46:40 10° SW 02:52:05 39° WNW 02:57:39 10° N visible
04 Apr 6.5 00:57:45 10° SE 01:02:07 22° E 01:06:32 10° NE visible
04 Apr 4.8 02:39:42 10° SW 02:45:01 38° WNW 02:50:34 10° N visible
05 Apr 6.4 00:51:16 12° SE 00:55:03 22° E 00:59:31 10° NE visible
05 Apr 4.8 02:33:41 16° SW 02:37:58 38° WNW 02:43:30 10° N visible
06 Apr 6.4 00:45:07 16° SE 00:47:58 23° E 00:52:30 10° NE visible
06 Apr 4.9 02:27:32 21° SW 02:30:55 37° WNW 02:36:25 10° N visible
07 Apr 6.3 00:38:51 19° ESE 00:40:53 23° E 00:45:28 10° NE visible
07 Apr 4.9 02:21:16 25° WSW 02:23:51 37° WNW 02:29:20 10° NNW visible
08 Apr 6.2 00:32:30 22° ESE 00:33:49 24° E 00:38:26 10° NE visible
08 Apr 4.9 02:14:54 29° WSW 02:16:47 36° WNW 02:22:15 10° NNW visible
